Time,TemperatureF,DewpointF,PressureIn,WindDirection,WindDirectionDegrees,WindSpeedMPH,WindSpeedGustMPH,Humidity,HourlyPrecipIn,Conditions,Clouds,dailyrainin,SolarRadiationWatts/m^2,SoftwareType,DateUTC
2013-08-20 00:08:00,62.9,60.8,29.92,SW,233,0.0,0.0,93,0.00,CLR,CLR,0.00,0.0,WeatherDisplay:10.37,2013-08-20 05:08:00,
2013-08-20 00:18:00,63.1,61.0,29.92,SW,233,0.0,0.0,93,0.00,CLR,CLR,0.00,0.0,WeatherDisplay:10.37,2013-08-20 05:18:00,
2013-08-20 00:23:00,62.6,60.0,29.92,SW,233,0.0,0.0,91,0.00,CLR,CLR,0.00,0.0,WeatherDisplay:10.37,2013-08-20 05:23:00,
2013-08-20 00:28:00,62.2,59.5,29.92,SW,233,0.0,0.0,91,0.00,CLR,CLR,0.00,0.0,WeatherDisplay:10.37,2013-08-20 05:28:00,
2013-08-20 00:38:00,62.7,61.2,29.92,SW,233,0.0,0.0,95,0.00,CLR,CLR,0.00,0.0,WeatherDisplay:10.37,2013-08-20 05:38:00,
2013-08-20 00:43:00,63.0,61.5,29.92,SW,233,0.0,0.0,95,0.00,CLR,CLR,0.00,0.0,WeatherDisplay:10.37,2013-08-20 05:43:00,
2013-08-20 00:53:00,62.9,61.1,29.92,SW,233,0.0,1.0,94,0.00,CLR,CLR,0.00,0.0,WeatherDisplay:10.37,2013-08-20 05:53:00,
2013-08-20 00:58:00,62.7,60.9,29.91,SW,233,0.0,0.0,94,0.00,CLR,CLR,0.00,0.0,WeatherDisplay:10.37,2013-08-20 05:58:00,
2013-08-20 01:03:00,62.6,60.8,29.91,SW,233,0.0,0.0,94,0.00,CLR,CLR,0.00,0.0,WeatherDisplay:10.37,2013-08-20 06:03:00,
2013-08-20 01:08:00,62.7,61.3,29.91,SW,233,0.0,0.0,95,0.00,CLR,CLR,0.00,0.0,WeatherDisplay:10.37,2013-08-20 06:08:00,
2013-08-20 01:13:00,62.8,61.0,29.91,SW,233,0.0,0.0,94,0.00,CLR,CLR,0.00,0.0,WeatherDisplay:10.37,2013-08-20 06:13:00,
2013-08-20 01:18:00,62.5,60.4,29.91,SW,233,0.0,0.0,93,0.00,CLR,CLR,0.00,0.0,WeatherDisplay:10.37,2013-08-20 06:18:00,
2013-08-20 01:23:00,62.3,60.2,29.91,SW,233,0.0,0.0,93,0.00,CLR,CLR,0.00,0.0,WeatherDisplay:10.37,2013-08-20 06:23:00,
2013-08-20 01:28:00,62.6,61.1,29.91,SW,233,0.0,1.0,95,0.00,CLR,CLR,0.00,0.0,WeatherDisplay:10.37,2013-08-20 06:28:00,
2013-08-20 01:33:00,62.8,61.3,29.91,SW,233,0.0,0.0,95,0.00,CLR,CLR,0.00,0.0,WeatherDisplay:10.37,2013-08-20 06:33:00,
2013-08-20 01:38:00,62.7,60.9,29.91,SW,233,0.0,0.0,94,0.00,CLR,CLR,0.00,0.0,WeatherDisplay:10.37,2013-08-20 06:38:00,
2013-08-20 01:43:00,62.5,60.4,29.91,SW,233,0.0,0.0,93,0.00,CLR,CLR,0.00,0.0,WeatherDisplay:10.37,2013-08-20 06:43:00,
2013-08-20 01:48:00,62.2,60.1,29.91,SW,233,0.0,0.0,93,0.00,CLR,CLR,0.00,0.0,WeatherDisplay:10.37,2013-08-20 06:48:00,
2013-08-20 01:53:00,62.0,60.2,29.91,SW,233,0.0,0.0,94,0.00,CLR,CLR,0.00,0.0,WeatherDisplay:10.37,2013-08-20 06:53:00,
2013-08-20 01:58:00,61.7,59.7,29.91,SW,233,0.0,0.0,93,0.00,CLR,CLR,0.00,0.0,WeatherDisplay:10.37,2013-08-20 06:58:00,
2013-08-20 02:03:00,61.7,60.0,29.91,SW,233,0.0,0.0,94,0.00,CLR,CLR,0.00,0.0,WeatherDisplay:10.37,2013-08-20 07:03:00,
2013-08-20 02:08:00,61.9,60.5,29.91,SW,233,0.0,0.0,95,0.00,CLR,CLR,0.00,0.0,WeatherDisplay:10.37,2013-08-20 07:08:00,
2013-08-20 02:13:00,62.0,60.5,29.90,SW,233,0.0,0.0,95,0.00,CLR,CLR,0.00,0.0,WeatherDisplay:10.37,2013-08-20 07:13:00,
2013-08-20 02:18:00,62.0,60.5,29.90,SW,233,0.0,0.0,95,0.00,CLR,CLR,0.00,0.0,WeatherDisplay:10.37,2013-08-20 07:18:00,
2013-08-20 02:23:00,61.7,60.0,29.91,SW,233,0.0,1.0,94,0.00,CLR,CLR,0.00,0.0,WeatherDisplay:10.37,2013-08-20 07:23:00,
2013-08-20 02:28:00,61.6,59.9,29.91,SW,233,0.0,1.0,94,0.00,CLR,CLR,0.00,0.0,WeatherDisplay:10.37,2013-08-20 07:28:00,
2013-08-20 02:33:00,61.4,59.7,29.91,SW,233,0.0,0.0,94,0.00,CLR,CLR,0.00,0.0,WeatherDisplay:10.37,2013-08-20 07:33:00,
2013-08-20 02:38:00,61.2,59.5,29.91,SW,233,0.0,0.0,94,0.00,CLR,CLR,0.00,0.0,WeatherDisplay:10.37,2013-08-20 07:38:00,
2013-08-20 02:43:00,61.3,60.2,29.90,SW,233,0.0,0.0,96,0.00,CLR,CLR,0.00,0.0,WeatherDisplay:10.37,2013-08-20 07:43:00,
2013-08-20 02:48:00,61.7,60.5,29.91,SW,233,0.0,1.0,96,0.00,CLR,CLR,0.00,0.0,WeatherDisplay:10.37,2013-08-20 07:48:00,
2013-08-20 02:53:00,61.7,60.5,29.91,SW,233,0.0,1.0,96,0.00,CLR,CLR,0.00,0.0,WeatherDisplay:10.37,2013-08-20 07:53:00,
2013-08-20 02:58:00,61.6,60.2,29.91,SW,233,0.0,0.0,95,0.00,CLR,CLR,0.00,0.0,WeatherDisplay:10.37,2013-08-20 07:58:00,
2013-08-20 03:03:00,61.0,59.0,29.91,SW,233,0.0,0.0,93,0.00,CLR,CLR,0.00,0.0,WeatherDisplay:10.37,2013-08-20 08:03:00,
2013-08-20 03:08:00,60.8,59.1,29.91,SW,233,0.0,0.0,94,0.00,CLR,CLR,0.00,0.0,WeatherDisplay:10.37,2013-08-20 08:08:00,
2013-08-20 03:13:00,60.7,59.0,29.91,SW,233,0.0,0.0,94,0.00,CLR,CLR,0.00,0.0,WeatherDisplay:10.37,2013-08-20 08:13:00,
2013-08-20 03:18:00,60.7,59.3,29.91,SW,233,0.0,0.0,95,0.00,CLR,CLR,0.00,0.0,WeatherDisplay:10.37,2013-08-20 08:18:00,
2013-08-20 03:23:00,60.5,59.1,29.91,SW,233,0.0,0.0,95,0.00,CLR,CLR,0.00,0.0,WeatherDisplay:10.37,2013-08-20 08:23:00,
2013-08-20 03:28:00,60.3,58.9,29.91,SW,233,0.0,1.0,95,0.00,CLR,CLR,0.00,0.0,WeatherDisplay:10.37,2013-08-20 08:28:00,
2013-08-20 03:33:00,60.7,59.5,29.91,SW,233,0.0,1.0,96,0.00,CLR,CLR,0.00,0.0,WeatherDisplay:10.37,2013-08-20 08:33:00,
2013-08-20 03:38:00,61.0,60.2,29.91,SW,233,0.0,0.0,97,0.00,CLR,CLR,0.00,0.0,WeatherDisplay:10.37,2013-08-20 08:38:00,
2013-08-20 03:48:00,61.9,61.0,29.91,SW,233,0.0,0.0,97,0.00,CLR,CLR,0.00,0.0,WeatherDisplay:10.37,2013-08-20 08:48:00,
2013-08-20 03:53:00,62.0,61.1,29.91,SW,233,0.0,0.0,97,0.00,CLR,CLR,0.00,0.0,WeatherDisplay:10.37,2013-08-20 08:53:00,
2013-08-20 03:58:00,62.0,61.1,29.91,SW,233,0.0,0.0,97,0.00,CLR,CLR,0.00,0.0,WeatherDisplay:10.37,2013-08-20 08:58:00,
2013-08-20 04:03:00,62.0,61.1,29.91,SW,233,0.0,0.0,97,0.00,CLR,CLR,0.00,0.0,WeatherDisplay:10.37,2013-08-20 09:03:00,
2013-08-20 04:08:00,62.0,61.1,29.91,SW,233,0.0,0.0,97,0.00,CLR,CLR,0.00,0.0,WeatherDisplay:10.37,2013-08-20 09:08:00,
2013-08-20 04:13:00,61.8,60.7,29.91,SW,233,0.0,0.0,96,0.00,CLR,CLR,0.00,0.0,WeatherDisplay:10.37,2013-08-20 09:13:00,
2013-08-20 04:18:00,61.8,60.6,29.91,SW,233,0.0,0.0,96,0.00,CLR,CLR,0.00,0.0,WeatherDisplay:10.37,2013-08-20 09:18:00,
2013-08-20 04:23:00,61.6,60.5,29.91,SW,233,0.0,0.0,96,0.00,CLR,CLR,0.00,0.0,WeatherDisplay:10.37,2013-08-20 09:23:00,
2013-08-20 04:28:00,60.9,59.1,29.91,SW,233,0.0,0.0,94,0.00,CLR,CLR,0.00,0.0,WeatherDisplay:10.37,2013-08-20 09:28:00,
2013-08-20 04:33:00,60.2,58.5,29.91,SW,233,0.0,0.0,94,0.00,CLR,CLR,0.00,0.0,WeatherDisplay:10.37,2013-08-20 09:33:00,
2013-08-20 04:38:00,60.0,58.6,29.92,SW,233,0.0,0.0,95,0.00,CLR,CLR,0.00,0.0,WeatherDisplay:10.37,2013-08-20 09:38:00,
2013-08-20 04:43:00,60.2,59.3,29.92,SW,233,0.0,0.0,97,0.00,CLR,CLR,0.00,0.0,WeatherDisplay:10.37,2013-08-20 09:43:00,
2013-08-20 04:48:00,60.5,59.6,29.92,SW,233,0.0,0.0,97,0.00,CLR,CLR,0.00,0.0,WeatherDisplay:10.37,2013-08-20 09:48:00,
2013-08-20 04:53:00,60.6,59.7,29.92,SW,233,0.0,0.0,97,0.00,CLR,CLR,0.00,0.0,WeatherDisplay:10.37,2013-08-20 09:53:00,
2013-08-20 04:58:00,60.7,59.8,29.92,SW,233,0.0,0.0,97,0.00,CLR,CLR,0.00,0.0,WeatherDisplay:10.37,2013-08-20 09:58:00,
2013-08-20 05:03:00,60.8,60.0,29.92,SW,233,1.0,2.0,97,0.00,CLR,CLR,0.00,0.0,WeatherDisplay:10.37,2013-08-20 10:03:00,
2013-08-20 05:08:00,60.7,59.6,29.92,SW,233,0.0,1.0,96,0.00,CLR,CLR,0.00,0.0,WeatherDisplay:10.37,2013-08-20 10:08:00,
2013-08-20 05:13:00,60.1,58.7,29.92,SW,233,0.0,0.0,95,0.00,CLR,CLR,0.00,0.0,WeatherDisplay:10.37,2013-08-20 10:13:00,
2013-08-20 05:18:00,59.8,58.4,29.92,SW,233,0.0,0.0,95,0.00,CLR,CLR,0.00,0.0,WeatherDisplay:10.37,2013-08-20 10:18:00,
2013-08-20 05:23:00,60.0,58.9,29.92,SW,233,0.0,0.0,96,0.00,CLR,CLR,0.00,0.0,WeatherDisplay:10.37,2013-08-20 10:23:00,
2013-08-20 05:28:00,59.6,58.2,29.92,SW,233,0.0,0.0,95,0.00,CLR,CLR,0.00,0.0,WeatherDisplay:10.37,2013-08-20 10:28:00,
2013-08-20 05:33:00,59.4,58.3,29.93,SW,233,0.0,0.0,96,0.00,CLR,CLR,0.00,0.0,WeatherDisplay:10.37,2013-08-20 10:33:00,
2013-08-20 05:38:00,59.7,58.6,29.93,SW,233,0.0,0.0,96,0.00,CLR,CLR,0.00,0.0,WeatherDisplay:10.37,2013-08-20 10:38:00,
2013-08-20 05:43:00,59.6,58.5,29.93,SW,233,0.0,0.0,96,0.00,CLR,CLR,0.00,0.0,WeatherDisplay:10.37,2013-08-20 10:43:00,
2013-08-20 05:48:00,59.2,57.8,29.93,SW,233,0.0,1.0,95,0.00,CLR,CLR,0.00,0.0,WeatherDisplay:10.37,2013-08-20 10:48:00,
2013-08-20 05:53:00,59.1,58.0,29.93,SW,233,0.0,0.0,96,0.00,CLR,CLR,0.00,0.0,WeatherDisplay:10.37,2013-08-20 10:53:00,
2013-08-20 05:58:00,59.7,59.2,29.94,SW,233,0.0,0.0,98,0.00,CLR,CLR,0.00,0.0,WeatherDisplay:10.37,2013-08-20 10:58:00,
2013-08-20 06:03:00,59.8,58.9,29.94,SW,233,0.0,0.0,97,0.00,CLR,CLR,0.00,0.0,WeatherDisplay:10.37,2013-08-20 11:03:00,
2013-08-20 06:08:00,59.7,58.8,29.94,SW,233,0.0,0.0,97,0.00,CLR,CLR,0.00,0.0,WeatherDisplay:10.37,2013-08-20 11:08:00,
2013-08-20 06:13:00,59.6,58.5,29.94,SW,233,0.0,0.0,96,0.00,CLR,CLR,0.00,0.0,WeatherDisplay:10.37,2013-08-20 11:13:00,
2013-08-20 06:18:00,59.5,58.3,29.94,SW,233,0.0,0.0,96,0.00,CLR,CLR,0.00,0.0,WeatherDisplay:10.37,2013-08-20 11:18:00,
2013-08-20 06:23:00,59.4,58.5,29.94,SW,233,0.0,0.0,97,0.00,CLR,CLR,0.00,0.0,WeatherDisplay:10.37,2013-08-20 11:23:00,
2013-08-20 06:28:00,59.6,58.7,29.94,SW,233,0.0,1.0,97,0.00,CLR,CLR,0.00,0.0,WeatherDisplay:10.37,2013-08-20 11:28:00,
2013-08-20 06:33:00,59.9,59.0,29.94,SW,233,0.0,0.0,97,0.00,CLR,CLR,0.00,0.0,WeatherDisplay:10.37,2013-08-20 11:33:00,
2013-08-20 06:38:00,60.1,59.2,29.94,SW,233,0.0,0.0,97,0.00,CLR,CLR,0.00,0.0,WeatherDisplay:10.37,2013-08-20 11:38:00,
2013-08-20 06:43:00,60.3,59.5,29.94,SW,234,0.0,0.0,97,0.00,CLR,CLR,0.00,0.0,WeatherDisplay:10.37,2013-08-20 11:43:00,
2013-08-20 06:48:00,60.7,60.1,29.94,SW,234,0.0,0.0,98,0.00,CLR,CLR,0.00,0.0,WeatherDisplay:10.37,2013-08-20 11:48:00,
2013-08-20 06:53:00,61.2,60.6,29.94,SW,233,0.0,0.0,98,0.00,CLR,CLR,0.00,0.0,WeatherDisplay:10.37,2013-08-20 11:53:00,
2013-08-20 06:58:00,61.8,61.2,29.95,SW,233,0.0,0.0,98,0.00,CLR,CLR,0.00,0.0,WeatherDisplay:10.37,2013-08-20 11:58:00,
2013-08-20 07:03:00,62.3,61.8,29.95,SW,233,0.0,1.0,98,0.00,CLR,CLR,0.00,0.0,WeatherDisplay:10.37,2013-08-20 12:03:00,
2013-08-20 07:08:00,63.0,62.4,29.95,SW,233,0.0,1.0,98,0.00,CLR,CLR,0.00,0.0,WeatherDisplay:10.37,2013-08-20 12:08:00,
2013-08-20 07:13:00,63.7,63.1,29.95,SW,233,0.0,1.0,98,0.00,CLR,CLR,0.00,0.0,WeatherDisplay:10.37,2013-08-20 12:13:00,
2013-08-20 07:18:00,64.5,63.9,29.95,SW,233,1.0,3.0,98,0.00,CLR,CLR,0.00,0.0,WeatherDisplay:10.37,2013-08-20 12:18:00,
2013-08-20 07:23:00,65.2,64.3,29.95,SW,232,1.0,4.0,97,0.00,CLR,CLR,0.00,0.0,WeatherDisplay:10.37,2013-08-20 12:23:00,
2013-08-20 07:28:00,65.7,64.9,29.95,SSW,208,2.0,5.0,97,0.00,CLR,CLR,0.00,0.0,WeatherDisplay:10.37,2013-08-20 12:28:00,
2013-08-20 07:33:00,66.3,64.8,29.96,SSE,168,3.0,5.0,95,0.00,CLR,CLR,0.00,0.0,WeatherDisplay:10.37,2013-08-20 12:33:00,
2013-08-20 07:38:00,66.7,64.9,29.96,SSE,155,3.0,5.0,94,0.00,CLR,CLR,0.00,0.0,WeatherDisplay:10.37,2013-08-20 12:38:00,
2013-08-20 07:43:00,67.0,64.9,29.96,SSE,158,1.0,3.0,93,0.00,CLR,CLR,0.00,0.0,WeatherDisplay:10.37,2013-08-20 12:43:00,
2013-08-20 07:48:00,67.2,64.8,29.96,SSE,156,1.0,2.0,92,0.00,CLR,CLR,0.00,0.0,WeatherDisplay:10.37,2013-08-20 12:48:00,
2013-08-20 07:53:00,67.5,65.1,29.96,SSE,156,1.0,3.0,92,0.00,CLR,CLR,0.00,0.0,WeatherDisplay:10.37,2013-08-20 12:53:00,
2013-08-20 07:58:00,67.8,65.0,29.96,SSE,156,1.0,3.0,91,0.00,CLR,CLR,0.00,0.0,WeatherDisplay:10.37,2013-08-20 12:58:00,
2013-08-20 08:03:00,68.0,65.3,29.96,SSE,160,0.0,3.0,91,0.00,CLR,CLR,0.00,0.0,WeatherDisplay:10.37,2013-08-20 13:03:00,
2013-08-20 08:08:00,68.3,65.2,29.96,South,169,0.0,2.0,90,0.00,CLR,CLR,0.00,0.0,WeatherDisplay:10.37,2013-08-20 13:08:00,
2013-08-20 08:13:00,68.5,65.4,29.96,South,186,0.0,1.0,90,0.00,CLR,CLR,0.00,0.0,WeatherDisplay:10.37,2013-08-20 13:13:00,
2013-08-20 08:18:00,68.9,65.9,29.96,SSE,164,0.0,4.0,90,0.00,CLR,CLR,0.00,0.0,WeatherDisplay:10.37,2013-08-20 13:18:00,
2013-08-20 08:23:00,69.7,66.3,29.97,SSE,156,1.0,3.0,89,0.00,CLR,CLR,0.00,0.0,WeatherDisplay:10.37,2013-08-20 13:23:00,
2013-08-20 08:28:00,70.7,66.6,29.97,SSE,153,2.0,4.0,87,0.00,CLR,CLR,0.00,0.0,WeatherDisplay:10.37,2013-08-20 13:28:00,
2013-08-20 08:33:00,71.7,66.9,29.97,SSE,162,1.0,4.0,85,0.00,CLR,CLR,0.00,0.0,WeatherDisplay:10.37,2013-08-20 13:33:00,
2013-08-20 08:38:00,72.5,67.8,29.97,SSE,167,1.0,2.0,85,0.00,CLR,CLR,0.00,0.0,WeatherDisplay:10.37,2013-08-20 13:38:00,
2013-08-20 08:43:00,73.4,67.6,29.97,South,169,1.0,3.0,82,0.00,CLR,CLR,0.00,0.0,WeatherDisplay:10.37,2013-08-20 13:43:00,
2013-08-20 08:48:00,74.1,67.9,29.97,South,173,1.0,4.0,81,0.00,CLR,CLR,0.00,0.0,WeatherDisplay:10.37,2013-08-20 13:48:00,
2013-08-20 08:53:00,74.7,68.5,29.97,South,169,2.0,4.0,81,0.00,CLR,CLR,0.00,0.0,WeatherDisplay:10.37,2013-08-20 13:53:00,
2013-08-20 08:58:00,75.1,67.8,29.97,South,184,2.0,4.0,78,0.00,CLR,CLR,0.00,0.0,WeatherDisplay:10.37,2013-08-20 13:58:00,
2013-08-20 09:03:00,75.1,68.2,29.97,SSW,212,1.0,3.0,79,0.00,CLR,CLR,0.00,0.0,WeatherDisplay:10.37,2013-08-20 14:03:00,
2013-08-20 09:08:00,75.9,68.2,29.97,South,184,2.0,5.0,77,0.00,CLR,CLR,0.00,0.0,WeatherDisplay:10.37,2013-08-20 14:08:00,
2013-08-20 09:13:00,76.7,68.1,29.97,South,183,2.0,5.0,75,0.00,CLR,CLR,0.00,0.0,WeatherDisplay:10.37,2013-08-20 14:13:00,
2013-08-20 09:18:00,76.8,67.9,29.97,SSW,208,1.0,5.0,74,0.00,CLR,CLR,0.00,0.0,WeatherDisplay:10.37,2013-08-20 14:18:00,
2013-08-20 09:28:00,76.1,67.6,29.97,SSW,210,1.0,4.0,75,0.00,CLR,CLR,0.00,0.0,WeatherDisplay:10.37,2013-08-20 14:28:00,
2013-08-20 09:33:00,76.2,66.9,29.97,South,185,1.0,3.0,73,0.00,CLR,CLR,0.00,0.0,WeatherDisplay:10.37,2013-08-20 14:33:00,
2013-08-20 09:38:00,76.4,67.9,29.98,SSW,201,3.0,5.0,75,0.00,CLR,CLR,0.00,0.0,WeatherDisplay:10.37,2013-08-20 14:38:00,
2013-08-20 09:43:00,77.2,67.9,29.97,SW,228,2.0,6.0,73,0.00,CLR,CLR,0.00,0.0,WeatherDisplay:10.37,2013-08-20 14:43:00,
2013-08-20 09:48:00,77.8,68.0,29.97,SW,217,2.0,7.0,72,0.00,CLR,CLR,0.00,0.0,WeatherDisplay:10.37,2013-08-20 14:48:00,
2013-08-20 09:53:00,78.6,68.0,29.97,SW,215,1.0,8.0,70,0.00,CLR,CLR,0.00,0.0,WeatherDisplay:10.37,2013-08-20 14:53:00,
2013-08-20 09:58:00,79.5,68.4,29.97,SW,230,2.0,5.0,69,0.00,CLR,CLR,0.00,0.0,WeatherDisplay:10.37,2013-08-20 14:58:00,
2013-08-20 10:03:00,79.3,68.2,29.98,WSW,240,3.0,8.0,69,0.00,CLR,CLR,0.00,0.0,WeatherDisplay:10.37,2013-08-20 15:03:00,
2013-08-20 10:08:00,78.6,67.1,29.97,SW,234,5.0,8.0,68,0.00,CLR,CLR,0.00,0.0,WeatherDisplay:10.37,2013-08-20 15:08:00,
2013-08-20 10:13:00,78.0,68.2,29.97,WSW,239,3.0,7.0,72,0.00,CLR,CLR,0.00,0.0,WeatherDisplay:10.37,2013-08-20 15:13:00,
2013-08-20 10:18:00,78.1,67.9,29.98,SW,234,1.0,5.0,71,0.00,CLR,CLR,0.00,0.0,WeatherDisplay:10.37,2013-08-20 15:18:00,
2013-08-20 10:23:00,78.0,67.0,29.98,SW,222,2.0,4.0,69,0.00,CLR,CLR,0.00,0.0,WeatherDisplay:10.37,2013-08-20 15:23:00,
2013-08-20 10:28:00,78.5,67.9,29.98,WSW,239,2.0,4.0,70,0.00,CLR,CLR,0.00,0.0,WeatherDisplay:10.37,2013-08-20 15:28:00,
2013-08-20 10:33:00,78.9,67.9,29.97,SW,235,6.0,9.0,69,0.00,CLR,CLR,0.00,0.0,WeatherDisplay:10.37,2013-08-20 15:33:00,
2013-08-20 10:38:00,79.0,68.8,29.97,WSW,244,5.0,8.0,71,0.00,CLR,CLR,0.00,0.0,WeatherDisplay:10.37,2013-08-20 15:38:00,
2013-08-20 10:43:00,79.8,68.2,29.97,WSW,244,3.0,7.0,68,0.00,CLR,CLR,0.00,0.0,WeatherDisplay:10.37,2013-08-20 15:43:00,
2013-08-20 10:48:00,79.4,68.4,29.97,WSW,246,3.0,9.0,69,0.00,CLR,CLR,0.00,0.0,WeatherDisplay:10.37,2013-08-20 15:48:00,
2013-08-20 10:53:00,79.3,68.2,29.97,WSW,242,2.0,5.0,69,0.00,CLR,CLR,0.00,0.0,WeatherDisplay:10.37,2013-08-20 15:53:00,
2013-08-20 10:58:00,79.7,68.6,29.97,SW,224,2.0,6.0,69,0.00,CLR,CLR,0.00,0.0,WeatherDisplay:10.37,2013-08-20 15:58:00,
2013-08-20 11:03:00,80.2,68.3,29.97,SW,223,3.0,7.0,67,0.00,CLR,CLR,0.00,0.0,WeatherDisplay:10.37,2013-08-20 16:03:00,
2013-08-20 11:08:00,80.2,69.1,29.97,SSW,206,2.0,5.0,69,0.00,CLR,CLR,0.00,0.0,WeatherDisplay:10.37,2013-08-20 16:08:00,
2013-08-20 11:13:00,80.6,67.7,29.97,SSW,205,3.0,6.0,65,0.00,CLR,CLR,0.00,0.0,WeatherDisplay:10.37,2013-08-20 16:13:00,
2013-08-20 11:18:00,81.2,68.3,29.96,SW,226,5.0,8.0,65,0.00,CLR,CLR,0.00,0.0,WeatherDisplay:10.37,2013-08-20 16:18:00,
2013-08-20 11:23:00,81.6,68.7,29.97,WSW,239,5.0,7.0,65,0.00,CLR,CLR,0.00,0.0,WeatherDisplay:10.37,2013-08-20 16:23:00,
2013-08-20 11:28:00,81.6,68.7,29.96,WSW,240,5.0,7.0,65,0.00,CLR,CLR,0.00,0.0,WeatherDisplay:10.37,2013-08-20 16:28:00,
2013-08-20 11:33:00,82.1,67.8,29.96,WSW,241,5.0,7.0,62,0.00,CLR,CLR,0.00,0.0,WeatherDisplay:10.37,2013-08-20 16:33:00,
2013-08-20 11:38:00,82.3,67.5,29.96,SW,229,2.0,8.0,61,0.00,CLR,CLR,0.00,0.0,WeatherDisplay:10.37,2013-08-20 16:38:00,
2013-08-20 11:43:00,82.5,68.2,29.96,SW,218,3.0,8.0,62,0.00,CLR,CLR,0.00,0.0,WeatherDisplay:10.37,2013-08-20 16:43:00,
2013-08-20 11:48:00,82.9,68.5,29.96,SW,234,5.0,8.0,62,0.00,CLR,CLR,0.00,0.0,WeatherDisplay:10.37,2013-08-20 16:48:00,
2013-08-20 11:53:00,82.4,68.1,29.95,WSW,250,5.0,10.0,62,0.00,CLR,CLR,0.00,0.0,WeatherDisplay:10.37,2013-08-20 16:53:00,
2013-08-20 11:58:00,82.4,68.1,29.96,SW,234,2.0,9.0,62,0.00,CLR,CLR,0.00,0.0,WeatherDisplay:10.37,2013-08-20 16:58:00,
2013-08-20 12:03:00,82.6,67.3,29.95,SSW,206,2.0,5.0,60,0.00,CLR,CLR,0.00,0.0,WeatherDisplay:10.37,2013-08-20 17:03:00,
2013-08-20 12:08:00,83.0,68.2,29.96,SSW,204,2.0,5.0,61,0.00,CLR,CLR,0.00,0.0,WeatherDisplay:10.37,2013-08-20 17:08:00,
2013-08-20 12:13:00,82.8,67.0,29.95,SSW,211,3.0,8.0,59,0.00,CLR,CLR,0.00,0.0,WeatherDisplay:10.37,2013-08-20 17:13:00,
2013-08-20 12:18:00,82.1,67.8,29.96,SSW,212,2.0,7.0,62,0.00,CLR,CLR,0.00,0.0,WeatherDisplay:10.37,2013-08-20 17:18:00,
2013-08-20 12:23:00,82.3,67.5,29.95,SW,220,5.0,7.0,61,0.00,CLR,CLR,0.00,0.0,WeatherDisplay:10.37,2013-08-20 17:23:00,
2013-08-20 12:28:00,82.4,68.5,29.95,SW,236,5.0,7.0,63,0.00,CLR,CLR,0.00,0.0,WeatherDisplay:10.37,2013-08-20 17:28:00,
2013-08-20 12:33:00,81.9,66.1,29.95,SW,225,2.0,7.0,59,0.00,CLR,CLR,0.00,0.0,WeatherDisplay:10.37,2013-08-20 17:33:00,
2013-08-20 12:38:00,81.9,65.1,29.95,SW,222,5.0,7.0,57,0.00,CLR,CLR,0.00,0.0,WeatherDisplay:10.37,2013-08-20 17:38:00,
2013-08-20 12:43:00,82.6,66.8,29.95,SSW,204,5.0,7.0,59,0.00,CLR,CLR,0.00,0.0,WeatherDisplay:10.37,2013-08-20 17:43:00,
2013-08-20 12:48:00,83.2,65.9,29.95,South,190,3.0,8.0,56,0.00,CLR,CLR,0.00,0.0,WeatherDisplay:10.37,2013-08-20 17:48:00,
2013-08-20 12:53:00,83.4,67.6,29.95,SSW,198,5.0,7.0,59,0.00,CLR,CLR,0.00,0.0,WeatherDisplay:10.37,2013-08-20 17:53:00,
2013-08-20 12:58:00,83.9,66.0,29.94,SSW,209,2.0,7.0,55,0.00,CLR,CLR,0.00,0.0,WeatherDisplay:10.37,2013-08-20 17:58:00,
2013-08-20 13:03:00,84.2,65.8,29.94,SSW,212,3.0,5.0,54,0.00,CLR,CLR,0.00,0.0,WeatherDisplay:10.37,2013-08-20 18:03:00,
2013-08-20 13:08:00,84.3,66.9,29.94,SSW,212,2.0,8.0,56,0.00,CLR,CLR,0.00,0.0,WeatherDisplay:10.37,2013-08-20 18:08:00,
2013-08-20 13:13:00,84.6,66.1,29.94,SW,230,6.0,8.0,54,0.00,CLR,CLR,0.00,0.0,WeatherDisplay:10.37,2013-08-20 18:13:00,
2013-08-20 13:18:00,84.1,66.7,29.94,SW,230,2.0,8.0,56,0.00,CLR,CLR,0.00,0.0,WeatherDisplay:10.37,2013-08-20 18:18:00,
2013-08-20 13:23:00,84.4,65.9,29.94,SSW,194,3.0,7.0,54,0.00,CLR,CLR,0.00,0.0,WeatherDisplay:10.37,2013-08-20 18:23:00,
2013-08-20 13:28:00,84.5,67.6,29.94,SW,220,3.0,8.0,57,0.00,CLR,CLR,0.00,0.0,WeatherDisplay:10.37,2013-08-20 18:28:00,
2013-08-20 13:33:00,84.8,66.3,29.94,WSW,242,2.0,8.0,54,0.00,CLR,CLR,0.00,0.0,WeatherDisplay:10.37,2013-08-20 18:33:00,
2013-08-20 13:38:00,85.2,69.3,29.93,WSW,239,5.0,7.0,59,0.00,CLR,CLR,0.00,0.0,WeatherDisplay:10.37,2013-08-20 18:38:00,
2013-08-20 13:43:00,85.4,69.9,29.93,SW,227,2.0,8.0,60,0.00,CLR,CLR,0.00,0.0,WeatherDisplay:10.37,2013-08-20 18:43:00,
2013-08-20 13:48:00,85.7,68.2,29.93,SW,215,2.0,7.0,56,0.00,CLR,CLR,0.00,0.0,WeatherDisplay:10.37,2013-08-20 18:48:00,
2013-08-20 13:53:00,85.2,67.8,29.93,SW,218,2.0,12.0,56,0.00,CLR,CLR,0.00,0.0,WeatherDisplay:10.37,2013-08-20 18:53:00,
2013-08-20 13:58:00,84.8,68.9,29.93,SSW,208,1.0,5.0,59,0.00,CLR,CLR,0.00,0.0,WeatherDisplay:10.37,2013-08-20 18:58:00,
2013-08-20 14:03:00,85.4,68.4,29.92,SSW,211,2.0,4.0,57,0.00,CLR,CLR,0.00,0.0,WeatherDisplay:10.37,2013-08-20 19:03:00,
2013-08-20 14:08:00,85.1,68.2,29.92,South,191,1.0,8.0,57,0.00,CLR,CLR,0.00,0.0,WeatherDisplay:10.37,2013-08-20 19:08:00,
2013-08-20 14:13:00,84.8,66.9,29.92,SSE,157,6.0,10.0,55,0.00,CLR,CLR,0.00,0.0,WeatherDisplay:10.37,2013-08-20 19:13:00,
2013-08-20 14:18:00,85.3,67.8,29.92,SSE,150,5.0,10.0,56,0.00,CLR,CLR,0.00,0.0,WeatherDisplay:10.37,2013-08-20 19:18:00,
2013-08-20 14:23:00,85.4,67.9,29.92,SSE,152,3.0,10.0,56,0.00,CLR,CLR,0.00,0.0,WeatherDisplay:10.37,2013-08-20 19:23:00,
2013-08-20 14:28:00,86.1,68.0,29.92,South,191,5.0,7.0,55,0.00,CLR,CLR,0.00,0.0,WeatherDisplay:10.37,2013-08-20 19:28:00,
2013-08-20 14:33:00,86.6,66.9,29.91,SSW,207,3.0,8.0,52,0.00,CLR,CLR,0.00,0.0,WeatherDisplay:10.37,2013-08-20 19:33:00,
2013-08-20 14:38:00,86.4,67.8,29.91,SSW,205,3.0,9.0,54,0.00,CLR,CLR,0.00,0.0,WeatherDisplay:10.37,2013-08-20 19:38:00,
2013-08-20 14:43:00,86.6,67.4,29.91,SSW,202,5.0,12.0,53,0.00,CLR,CLR,0.00,0.0,WeatherDisplay:10.37,2013-08-20 19:43:00,
2013-08-20 14:48:00,86.6,66.3,29.91,SSW,195,3.0,7.0,51,0.00,CLR,CLR,0.00,0.0,WeatherDisplay:10.37,2013-08-20 19:48:00,
2013-08-20 14:53:00,86.5,67.9,29.91,SSW,206,2.0,7.0,54,0.00,CLR,CLR,0.00,0.0,WeatherDisplay:10.37,2013-08-20 19:53:00,
2013-08-20 14:58:00,86.5,66.8,29.91,SW,231,2.0,7.0,52,0.00,CLR,CLR,0.00,0.0,WeatherDisplay:10.37,2013-08-20 19:58:00,
2013-08-20 15:03:00,86.6,67.5,29.91,WSW,238,5.0,8.0,53,0.00,CLR,CLR,0.00,0.0,WeatherDisplay:10.37,2013-08-20 20:03:00,
2013-08-20 15:08:00,86.6,66.9,29.91,SSW,212,3.0,7.0,52,0.00,CLR,CLR,0.00,0.0,WeatherDisplay:10.37,2013-08-20 20:08:00,
2013-08-20 15:13:00,86.8,67.1,29.91,SSW,197,3.0,6.0,52,0.00,CLR,CLR,0.00,0.0,WeatherDisplay:10.37,2013-08-20 20:13:00,
2013-08-20 15:18:00,87.0,67.8,29.91,SSW,211,2.0,7.0,53,0.00,CLR,CLR,0.00,0.0,WeatherDisplay:10.37,2013-08-20 20:18:00,
2013-08-20 15:23:00,87.2,67.4,29.91,SW,216,2.0,6.0,52,0.00,CLR,CLR,0.00,0.0,WeatherDisplay:10.37,2013-08-20 20:23:00,
2013-08-20 15:28:00,87.0,67.8,29.90,SW,222,2.0,8.0,53,0.00,CLR,CLR,0.00,0.0,WeatherDisplay:10.37,2013-08-20 20:28:00,
2013-08-20 15:33:00,87.1,67.9,29.90,SW,229,5.0,10.0,53,0.00,CLR,CLR,0.00,0.0,WeatherDisplay:10.37,2013-08-20 20:33:00,
2013-08-20 15:38:00,87.2,66.9,29.90,SW,223,5.0,9.0,51,0.00,CLR,CLR,0.00,0.0,WeatherDisplay:10.37,2013-08-20 20:38:00,
2013-08-20 15:43:00,87.0,65.5,29.90,SSW,203,2.0,8.0,49,0.00,CLR,CLR,0.00,0.0,WeatherDisplay:10.37,2013-08-20 20:43:00,
2013-08-20 15:48:00,87.1,67.3,29.90,South,189,2.0,5.0,52,0.00,CLR,CLR,0.00,0.0,WeatherDisplay:10.37,2013-08-20 20:48:00,
2013-08-20 15:53:00,87.3,66.9,29.90,SSW,202,2.0,5.0,51,0.00,CLR,CLR,0.00,0.0,WeatherDisplay:10.37,2013-08-20 20:53:00,
2013-08-20 15:58:00,87.1,67.3,29.90,SW,217,6.0,9.0,52,0.00,CLR,CLR,0.00,0.0,WeatherDisplay:10.37,2013-08-20 20:58:00,
2013-08-20 16:03:00,87.2,66.9,29.90,South,190,3.0,6.0,51,0.00,CLR,CLR,0.00,0.0,WeatherDisplay:10.37,2013-08-20 21:03:00,
2013-08-20 16:08:00,87.1,67.9,29.89,SSW,210,6.0,9.0,53,0.00,CLR,CLR,0.00,0.0,WeatherDisplay:10.37,2013-08-20 21:08:00,
2013-08-20 16:13:00,86.7,67.5,29.89,SW,215,3.0,8.0,53,0.00,CLR,CLR,0.00,0.0,WeatherDisplay:10.37,2013-08-20 21:13:00,
2013-08-20 16:18:00,86.7,67.5,29.89,SW,218,2.0,6.0,53,0.00,CLR,CLR,0.00,0.0,WeatherDisplay:10.37,2013-08-20 21:18:00,
2013-08-20 16:23:00,86.8,67.0,29.89,WSW,239,5.0,7.0,52,0.00,CLR,CLR,0.00,0.0,WeatherDisplay:10.37,2013-08-20 21:23:00,
2013-08-20 16:28:00,86.4,67.2,29.89,SSW,207,3.0,7.0,53,0.00,CLR,CLR,0.00,0.0,WeatherDisplay:10.37,2013-08-20 21:28:00,
2013-08-20 16:33:00,86.2,67.6,29.89,South,187,5.0,7.0,54,0.00,CLR,CLR,0.00,0.0,WeatherDisplay:10.37,2013-08-20 21:33:00,
2013-08-20 16:38:00,86.1,68.1,29.89,South,185,1.0,7.0,55,0.00,CLR,CLR,0.00,0.0,WeatherDisplay:10.37,2013-08-20 21:38:00,
2013-08-20 16:43:00,86.2,66.5,29.89,South,179,1.0,6.0,52,0.00,CLR,CLR,0.00,0.0,WeatherDisplay:10.37,2013-08-20 21:43:00,
2013-08-20 16:48:00,86.2,67.6,29.89,SW,214,3.0,7.0,54,0.00,CLR,CLR,0.00,0.0,WeatherDisplay:10.37,2013-08-20 21:48:00,
2013-08-20 16:53:00,86.3,67.7,29.89,SW,221,2.0,6.0,54,0.00,CLR,CLR,0.00,0.0,WeatherDisplay:10.37,2013-08-20 21:53:00,
2013-08-20 16:58:00,86.1,67.0,29.89,SW,234,5.0,8.0,53,0.00,CLR,CLR,0.00,0.0,WeatherDisplay:10.37,2013-08-20 21:58:00,
2013-08-20 17:03:00,86.0,66.9,29.89,SW,228,3.0,8.0,53,0.00,CLR,CLR,0.00,0.0,WeatherDisplay:10.37,2013-08-20 22:03:00,
2013-08-20 17:08:00,86.0,68.0,29.89,SSW,212,2.0,5.0,55,0.00,CLR,CLR,0.00,0.0,WeatherDisplay:10.37,2013-08-20 22:08:00,
2013-08-20 17:13:00,86.0,67.4,29.89,SW,215,1.0,6.0,54,0.00,CLR,CLR,0.00,0.0,WeatherDisplay:10.37,2013-08-20 22:13:00,
2013-08-20 17:18:00,86.0,66.9,29.89,SSW,212,3.0,6.0,53,0.00,CLR,CLR,0.00,0.0,WeatherDisplay:10.37,2013-08-20 22:18:00,
2013-08-20 17:23:00,85.7,67.7,29.89,SW,234,3.0,6.0,55,0.00,CLR,CLR,0.00,0.0,WeatherDisplay:10.37,2013-08-20 22:23:00,
2013-08-20 17:28:00,85.5,67.5,29.89,SW,236,2.0,6.0,55,0.00,CLR,CLR,0.00,0.0,WeatherDisplay:10.37,2013-08-20 22:28:00,
2013-08-20 17:33:00,85.5,66.9,29.89,SW,226,2.0,5.0,54,0.00,CLR,CLR,0.00,0.0,WeatherDisplay:10.37,2013-08-20 22:33:00,
2013-08-20 17:38:00,85.4,67.4,29.89,SSW,208,1.0,4.0,55,0.00,CLR,CLR,0.00,0.0,WeatherDisplay:10.37,2013-08-20 22:38:00,
2013-08-20 17:43:00,85.4,67.9,29.88,SSW,199,1.0,5.0,56,0.00,CLR,CLR,0.00,0.0,WeatherDisplay:10.37,2013-08-20 22:43:00,
2013-08-20 17:48:00,85.3,66.8,29.89,SSW,212,3.0,6.0,54,0.00,CLR,CLR,0.00,0.0,WeatherDisplay:10.37,2013-08-20 22:48:00,
2013-08-20 17:53:00,85.1,67.1,29.88,SW,215,2.0,5.0,55,0.00,CLR,CLR,0.00,0.0,WeatherDisplay:10.37,2013-08-20 22:53:00,
2013-08-20 17:58:00,85.0,67.0,29.88,SSW,206,2.0,5.0,55,0.00,CLR,CLR,0.00,0.0,WeatherDisplay:10.37,2013-08-20 22:58:00,
2013-08-20 18:03:00,84.7,66.7,29.88,SSW,203,3.0,5.0,55,0.00,CLR,CLR,0.00,0.0,WeatherDisplay:10.37,2013-08-20 23:03:00,
2013-08-20 18:08:00,84.4,67.0,29.88,SSW,212,3.0,5.0,56,0.00,CLR,CLR,0.00,0.0,WeatherDisplay:10.37,2013-08-20 23:08:00,
2013-08-20 18:13:00,84.1,66.7,29.88,SSW,213,2.0,5.0,56,0.00,CLR,CLR,0.00,0.0,WeatherDisplay:10.37,2013-08-20 23:13:00,
2013-08-20 18:18:00,83.9,67.0,29.88,SW,215,2.0,5.0,57,0.00,CLR,CLR,0.00,0.0,WeatherDisplay:10.37,2013-08-20 23:18:00,
2013-08-20 18:23:00,83.7,66.8,29.88,SW,217,1.0,5.0,57,0.00,CLR,CLR,0.00,0.0,WeatherDisplay:10.37,2013-08-20 23:23:00,
2013-08-20 18:28:00,83.6,67.3,29.88,SW,220,1.0,3.0,58,0.00,CLR,CLR,0.00,0.0,WeatherDisplay:10.37,2013-08-20 23:28:00,
2013-08-20 18:33:00,83.3,67.0,29.88,SW,221,2.0,4.0,58,0.00,CLR,CLR,0.00,0.0,WeatherDisplay:10.37,2013-08-20 23:33:00,
2013-08-20 18:38:00,83.1,67.3,29.88,SW,221,0.0,2.0,59,0.00,CLR,CLR,0.00,0.0,WeatherDisplay:10.37,2013-08-20 23:38:00,
2013-08-20 18:43:00,83.0,67.7,29.88,SW,221,1.0,2.0,60,0.00,CLR,CLR,0.00,0.0,WeatherDisplay:10.37,2013-08-20 23:43:00,
2013-08-20 18:48:00,82.8,68.0,29.88,SW,221,0.0,1.0,61,0.00,CLR,CLR,0.00,0.0,WeatherDisplay:10.37,2013-08-20 23:48:00,
2013-08-20 18:53:00,82.6,67.8,29.88,SW,221,1.0,2.0,61,0.00,CLR,CLR,0.00,0.0,WeatherDisplay:10.37,2013-08-20 23:53:00,
2013-08-20 18:58:00,82.2,67.9,29.88,SW,221,0.0,1.0,62,0.00,CLR,CLR,0.00,0.0,WeatherDisplay:10.37,2013-08-20 23:58:00,
2013-08-20 19:03:00,81.9,68.0,29.88,SW,221,0.0,0.0,63,0.00,CLR,CLR,0.00,0.0,WeatherDisplay:10.37,2013-08-21 00:03:00,
2013-08-20 19:08:00,81.3,68.0,29.88,SW,221,0.0,1.0,64,0.00,CLR,CLR,0.00,0.0,WeatherDisplay:10.37,2013-08-21 00:08:00,
2013-08-20 19:13:00,80.7,67.9,29.88,SW,221,0.0,0.0,65,0.00,CLR,CLR,0.00,0.0,WeatherDisplay:10.37,2013-08-21 00:13:00,
2013-08-20 19:18:00,80.2,68.2,29.88,SW,221,0.0,0.0,67,0.00,CLR,CLR,0.00,0.0,WeatherDisplay:10.37,2013-08-21 00:18:00,
2013-08-20 19:23:00,79.6,68.1,29.88,SW,221,0.0,0.0,68,0.00,CLR,CLR,0.00,0.0,WeatherDisplay:10.37,2013-08-21 00:23:00,
2013-08-20 19:28:00,79.0,67.5,29.88,SW,221,0.0,0.0,68,0.00,CLR,CLR,0.00,0.0,WeatherDisplay:10.37,2013-08-21 00:28:00,
2013-08-20 19:33:00,78.5,67.5,29.88,SW,221,0.0,0.0,69,0.00,CLR,CLR,0.00,0.0,WeatherDisplay:10.37,2013-08-21 00:33:00,
2013-08-20 19:38:00,78.1,67.5,29.88,SW,221,0.0,0.0,70,0.00,CLR,CLR,0.00,0.0,WeatherDisplay:10.37,2013-08-21 00:38:00,
2013-08-20 19:43:00,77.7,67.5,29.88,SW,221,0.0,0.0,71,0.00,CLR,CLR,0.00,0.0,WeatherDisplay:10.37,2013-08-21 00:43:00,
2013-08-20 19:48:00,77.0,67.3,29.88,SW,221,0.0,0.0,72,0.00,CLR,CLR,0.00,0.0,WeatherDisplay:10.37,2013-08-21 00:48:00,
2013-08-20 19:53:00,76.4,67.1,29.88,SW,221,0.0,0.0,73,0.00,CLR,CLR,0.00,0.0,WeatherDisplay:10.37,2013-08-21 00:53:00,
2013-08-20 19:58:00,75.9,67.1,29.88,SW,221,0.0,0.0,74,0.00,CLR,CLR,0.00,0.0,WeatherDisplay:10.37,2013-08-21 00:58:00,
2013-08-20 20:03:00,75.5,67.0,29.88,SW,221,0.0,0.0,75,0.00,CLR,CLR,0.00,0.0,WeatherDisplay:10.37,2013-08-21 01:03:00,
2013-08-20 20:08:00,75.1,66.6,29.89,SW,221,0.0,0.0,75,0.00,CLR,CLR,0.00,0.0,WeatherDisplay:10.37,2013-08-21 01:08:00,
2013-08-20 20:13:00,74.7,66.6,29.89,SW,221,0.0,0.0,76,0.00,CLR,CLR,0.00,0.0,WeatherDisplay:10.37,2013-08-21 01:13:00,
2013-08-20 20:18:00,74.2,66.5,29.89,SW,221,0.0,0.0,77,0.00,CLR,CLR,0.00,0.0,WeatherDisplay:10.37,2013-08-21 01:18:00,
2013-08-20 20:23:00,73.9,66.6,29.89,SW,221,0.0,0.0,78,0.00,CLR,CLR,0.00,0.0,WeatherDisplay:10.37,2013-08-21 01:23:00,
2013-08-20 20:28:00,73.6,66.7,29.89,SW,221,0.0,0.0,79,0.00,CLR,CLR,0.00,0.0,WeatherDisplay:10.37,2013-08-21 01:28:00,
2013-08-20 20:33:00,73.3,66.4,29.89,SW,221,0.0,0.0,79,0.00,CLR,CLR,0.00,0.0,WeatherDisplay:10.37,2013-08-21 01:33:00,
2013-08-20 20:38:00,73.1,66.5,29.89,SW,221,0.0,0.0,80,0.00,CLR,CLR,0.00,0.0,WeatherDisplay:10.37,2013-08-21 01:38:00,
2013-08-20 20:43:00,72.8,66.3,29.89,SW,221,0.0,0.0,80,0.00,CLR,CLR,0.00,0.0,WeatherDisplay:10.37,2013-08-21 01:43:00,
2013-08-20 20:48:00,72.5,66.0,29.89,SW,221,0.0,0.0,80,0.00,CLR,CLR,0.00,0.0,WeatherDisplay:10.37,2013-08-21 01:48:00,
2013-08-20 20:53:00,72.2,66.0,29.89,SW,221,0.0,0.0,81,0.00,CLR,CLR,0.00,0.0,WeatherDisplay:10.37,2013-08-21 01:53:00,
2013-08-20 20:58:00,72.0,65.8,29.90,SW,221,0.0,0.0,81,0.00,CLR,CLR,0.00,0.0,WeatherDisplay:10.37,2013-08-21 01:58:00,
2013-08-20 21:03:00,71.8,66.0,29.89,SW,221,0.0,1.0,82,0.00,CLR,CLR,0.00,0.0,WeatherDisplay:10.37,2013-08-21 02:03:00,
2013-08-20 21:08:00,71.6,65.8,29.90,SW,221,0.0,0.0,82,0.00,CLR,CLR,0.00,0.0,WeatherDisplay:10.37,2013-08-21 02:08:00,
2013-08-20 21:13:00,71.2,65.5,29.90,SW,221,0.0,1.0,82,0.00,CLR,CLR,0.00,0.0,WeatherDisplay:10.37,2013-08-21 02:13:00,
2013-08-20 21:18:00,70.8,65.4,29.90,SW,221,0.0,1.0,83,0.00,CLR,CLR,0.00,0.0,WeatherDisplay:10.37,2013-08-21 02:18:00,
2013-08-20 21:23:00,70.4,65.4,29.90,SW,221,0.0,1.0,84,0.00,CLR,CLR,0.00,0.0,WeatherDisplay:10.37,2013-08-21 02:23:00,
2013-08-20 21:28:00,70.3,65.2,29.90,SW,221,0.0,0.0,84,0.00,CLR,CLR,0.00,0.0,WeatherDisplay:10.37,2013-08-21 02:28:00,
2013-08-20 21:33:00,70.2,65.1,29.90,SW,221,0.0,0.0,84,0.00,CLR,CLR,0.00,0.0,WeatherDisplay:10.37,2013-08-21 02:33:00,
2013-08-20 21:38:00,70.1,65.0,29.90,SW,221,0.0,0.0,84,0.00,CLR,CLR,0.00,0.0,WeatherDisplay:10.37,2013-08-21 02:38:00,
2013-08-20 21:43:00,69.9,65.2,29.90,SW,221,0.0,0.0,85,0.00,CLR,CLR,0.00,0.0,WeatherDisplay:10.37,2013-08-21 02:43:00,
2013-08-20 21:48:00,69.7,65.0,29.90,SW,221,0.0,1.0,85,0.00,CLR,CLR,0.00,0.0,WeatherDisplay:10.37,2013-08-21 02:48:00,
2013-08-20 21:53:00,69.4,65.0,29.90,South,181,3.0,4.0,86,0.00,CLR,CLR,0.00,0.0,WeatherDisplay:10.37,2013-08-21 02:53:00,
2013-08-20 21:58:00,69.6,65.6,29.90,SSE,154,2.0,6.0,87,0.00,CLR,CLR,0.00,0.0,WeatherDisplay:10.37,2013-08-21 02:58:00,
2013-08-20 22:03:00,70.0,65.6,29.90,SSE,151,2.0,4.0,86,0.00,CLR,CLR,0.00,0.0,WeatherDisplay:10.37,2013-08-21 03:03:00,
2013-08-20 22:08:00,70.4,65.7,29.90,SSE,148,1.0,4.0,85,0.00,CLR,CLR,0.00,0.0,WeatherDisplay:10.37,2013-08-21 03:08:00,
2013-08-20 22:13:00,70.6,65.9,29.90,SSE,156,1.0,3.0,85,0.00,CLR,CLR,0.00,0.0,WeatherDisplay:10.37,2013-08-21 03:13:00,
2013-08-20 22:18:00,70.6,65.9,29.90,SSE,161,2.0,5.0,85,0.00,CLR,CLR,0.00,0.0,WeatherDisplay:10.37,2013-08-21 03:18:00,
2013-08-20 22:23:00,70.8,66.1,29.90,SSE,156,3.0,5.0,85,0.00,CLR,CLR,0.00,0.0,WeatherDisplay:10.37,2013-08-21 03:23:00,
2013-08-20 22:28:00,71.1,66.1,29.91,SSE,156,3.0,4.0,84,0.00,CLR,CLR,0.00,0.0,WeatherDisplay:10.37,2013-08-21 03:28:00,
2013-08-20 22:33:00,71.2,66.1,29.91,SSE,155,2.0,5.0,84,0.00,CLR,CLR,0.00,0.0,WeatherDisplay:10.37,2013-08-21 03:33:00,
2013-08-20 22:38:00,71.1,66.0,29.91,SSE,154,0.0,4.0,84,0.00,CLR,CLR,0.00,0.0,WeatherDisplay:10.37,2013-08-21 03:38:00,
2013-08-20 22:48:00,70.5,65.4,29.91,SSE,154,0.0,1.0,84,0.00,CLR,CLR,0.00,0.0,WeatherDisplay:10.37,2013-08-21 03:48:00,
2013-08-20 22:53:00,70.1,65.4,29.91,SSE,154,0.0,1.0,85,0.00,CLR,CLR,0.00,0.0,WeatherDisplay:10.37,2013-08-21 03:53:00,
2013-08-20 22:58:00,69.7,65.3,29.91,SSE,154,0.0,0.0,86,0.00,CLR,CLR,0.00,0.0,WeatherDisplay:10.37,2013-08-21 03:58:00,
2013-08-20 23:03:00,69.4,65.0,29.91,SSE,154,0.0,0.0,86,0.00,CLR,CLR,0.00,0.0,WeatherDisplay:10.37,2013-08-21 04:03:00,
2013-08-20 23:08:00,69.0,65.0,29.91,SSE,154,0.0,0.0,87,0.00,CLR,CLR,0.00,0.0,WeatherDisplay:10.37,2013-08-21 04:08:00,
2013-08-20 23:13:00,68.7,65.0,29.91,SSE,154,0.0,0.0,88,0.00,CLR,CLR,0.00,0.0,WeatherDisplay:10.37,2013-08-21 04:13:00,
2013-08-20 23:18:00,68.5,64.8,29.91,SSE,154,0.0,0.0,88,0.00,CLR,CLR,0.00,0.0,WeatherDisplay:10.37,2013-08-21 04:18:00,
2013-08-20 23:23:00,68.3,64.9,29.91,SSE,154,0.0,0.0,89,0.00,CLR,CLR,0.00,0.0,WeatherDisplay:10.37,2013-08-21 04:23:00,
2013-08-20 23:28:00,68.1,64.8,29.91,SSE,154,0.0,1.0,89,0.00,CLR,CLR,0.00,0.0,WeatherDisplay:10.37,2013-08-21 04:28:00,
2013-08-20 23:33:00,68.1,64.7,29.91,SSE,154,0.0,0.0,89,0.00,CLR,CLR,0.00,0.0,WeatherDisplay:10.37,2013-08-21 04:33:00,
2013-08-20 23:38:00,68.0,64.6,29.91,SSE,154,0.0,0.0,89,0.00,CLR,CLR,0.00,0.0,WeatherDisplay:10.37,2013-08-21 04:38:00,
2013-08-20 23:43:00,67.9,64.8,29.91,SSE,154,0.0,0.0,90,0.00,CLR,CLR,0.00,0.0,WeatherDisplay:10.37,2013-08-21 04:43:00,
2013-08-20 23:48:00,67.8,64.8,29.91,SSE,154,0.0,0.0,90,0.00,CLR,CLR,0.00,0.0,WeatherDisplay:10.37,2013-08-21 04:48:00,
2013-08-20 23:53:00,67.8,64.8,29.91,SSE,154,0.0,0.0,90,0.00,CLR,CLR,0.00,0.0,WeatherDisplay:10.37,2013-08-21 04:53:00,
2013-08-20 23:58:00,67.7,64.7,29.91,SSE,154,0.0,1.0,90,0.00,CLR,CLR,0.00,0.0,WeatherDisplay:10.37,2013-08-21 04:58:00,